FW7515 Weather Reports


time (UTC)temp
C
wind
direction
speed
KPH
gust
KPH
rain 1hr
cm
rain 24hr
cm
rain mn
cm
humidity
%
barometer
mb
20260906225533 37 112 6.4 14.5 0.00 0.00 0.00 38 1011.1
20260906225031 37 114 8.0 16.1 0.00 0.00 0.00 38 1011.1
20260906224529 37 131 8.0 17.7 0.00 0.00 0.00 39 1011.1
20260906224046 37 83 6.4 12.9 0.00 0.00 0.00 39 1011.0
20260906223525 37 76 6.4 14.5 0.00 0.00 0.00 39 1011.1
20260906223024 37 97 6.4 12.9 0.00 0.00 0.00 39 1011.2
20260906222521 38 147 4.8 11.3 0.00 0.00 0.00 37 1011.3
20260906222040 38 175 4.8 8.0 0.00 0.00 0.00 37 1011.2
20260906221518 38 135 3.2 9.7 0.00 0.00 0.00 38 1011.3
20260906221016 38 190 4.8 9.7 0.00 0.00 0.00 38 1011.3
20260906220536 37 110 3.2 9.7 0.00 0.00 0.00 38 1011.5
20260906220052 37 139 4.8 11.3 0.00 0.00 0.00 38 1011.5
20260906215531 37 96 4.8 8.0 0.00 0.00 0.00 40 1011.4
20260906215028 36 89 8.0 17.7 0.00 0.00 0.00 40 1011.6
20260906214526 37 89 8.0 16.1 0.00 0.00 0.00 40 1011.5
20260906214024 37 92 8.0 17.7 0.00 0.00 0.00 40 1011.6
20260906213542 37 85 9.7 19.3 0.00 0.00 0.00 40 1011.6
20260906213020 36 93 6.4 12.9 0.00 0.00 0.00 40 1011.7
20260906212518 37 87 8.0 16.1 0.00 0.00 0.00 40 1011.8
20260906212016 37 90 8.0 14.5 0.00 0.00 0.00 39 1011.9
20260906211534 37 112 6.4 17.7 0.00 0.00 0.00 39 1012.1
20260906211032 37 92 6.4 14.5 0.00 0.00 0.00 39 1012.0
20260906210529 38 108 4.8 11.3 0.00 0.00 0.00 38 1012.0
20260906210047 38 160 4.8 11.3 0.00 0.00 0.00 38 1012.1
20260906205525 38 142 6.4 14.5 0.00 0.00 0.00 38 1012.2
20260906205043 37 143 6.4 12.9 0.00 0.00 0.00 38 1012.3
20260906204520 37 119 6.4 14.5 0.00 0.00 0.00 39 1012.4
20260906204039 37 98 8.0 14.5 0.00 0.00 0.00 39 1012.4
20260906203516 37 83 4.8 9.7 0.00 0.00 0.00 40 1012.3
20260906203035 37 78 8.0 14.5 0.00 0.00 0.00 39 1012.4
20260906202533 37 99 8.0 20.9 0.00 0.00 0.00 39 1012.4
20260906202031 37 62 4.8 12.9 0.00 0.00 0.00 40 1012.5
20260906201529 37 107 6.4 16.1 0.00 0.00 0.00 39 1012.5
20260906201027 37 117 8.0 17.7 0.00 0.00 0.00 40 1012.5
20260906200525 37 87 6.4 11.3 0.00 0.00 0.00 40 1012.7
20260906200023 37 108 8.0 17.7 0.00 0.00 0.00 40 1012.8
20260906195521 37 81 8.0 17.7 0.00 0.00 0.00 41 1012.7
20260906195019 37 109 4.8 11.3 0.00 0.00 0.00 40 1012.7
20260906194517 37 129 8.0 19.3 0.00 0.00 0.00 40 1012.9
20260906194015 38 117 4.8 6.4 0.00 0.00 0.00 39 1012.9
20260906193533 37 153 4.8 14.5 0.00 0.00 0.00 40 1013.1
20260906193032 37 159 4.8 11.3 0.00 0.00 0.00 40 1013.2
20260906192529 36 181 3.2 9.7 0.00 0.00 0.00 43 1013.2
20260906192027 36 82 8.0 14.5 0.00 0.00 0.00 44 1013.3
20260906191525 36 79 8.0 17.7 0.00 0.00 0.00 43 1013.2
20260906191023 36 96 8.0 17.7 0.00 0.00 0.00 44 1013.2
20260906190541 36 96 9.7 19.3 0.00 0.00 0.00 44 1013.2
20260906190019 36 99 6.4 14.5 0.00 0.00 0.00 44 1013.3
20260906185559 37 97 6.4 16.1 0.00 0.00 0.00 43 1013.4
20260906185016 36 193 3.2 11.3 0.00 0.00 0.00 44 1013.5
20260906184534 36 95 9.7 20.9 0.00 0.00 0.00 44 1013.6
20260906184152 37 113 6.4 16.1 0.00 0.00 0.00 42 1013.6
20260906183530 37 134 4.8 12.9 0.00 0.00 0.00 43 1013.7
20260906183027 36 100 6.4 16.1 0.00 0.00 0.00 43 1013.7
20260906182524 36 97 6.4 16.1 0.00 0.00 0.00 45 1013.6
20260906182023 37 113 4.8 19.3 0.00 0.00 0.00 43 1013.7
20260906181521 37 182 6.4 14.5 0.00 0.00 0.00 43 1013.8
20260906181039 37 186 4.8 9.7 0.00 0.00 0.00 43 1013.9
20260906180517 37 187 3.2 12.9 0.00 0.00 0.00 43 1014.1
20260906180055 36 176 4.8 11.3 0.00 0.00 0.00 44 1014.1
20260906175553 35 148 4.8 11.3 0.00 0.00 0.00 46 1014.1
20260906175031 35 97 6.4 14.5 0.00 0.00 0.00 47 1014.4
20260906174529 35 100 6.4 17.7 0.00 0.00 0.00 47 1014.5
20260906174027 35 85 6.4 16.1 0.00 0.00 0.00 46 1014.6
20260906173525 35 119 4.8 17.7 0.00 0.00 0.00 46 1014.7
20260906173024 34 84 8.0 14.5 0.00 0.00 0.00 48 1014.7
20260906172523 34 87 12.9 22.5 0.00 0.00 0.00 49 1014.7
20260906172019 35 95 8.0 22.5 0.00 0.00 0.00 47 1014.8
20260906171518 35 117 8.0 16.1 0.00 0.00 0.00 46 1014.8
20260906171016 35 136 4.8 14.5 0.00 0.00 0.00 47 1014.8
20260906170534 35 131 3.2 8.0 0.00 0.00 0.00 47 1014.8
20260906170032 35 135 4.8 11.3 0.00 0.00 0.00 49 1014.8
20260906165530 34 128 4.8 11.3 0.00 0.00 0.00 49 1014.9
20260906165028 35 105 6.4 11.3 0.00 0.00 0.00 49 1015.1
20260906164526 34 108 4.8 12.9 0.00 0.00 0.00 50 1015.2
20260906164104 33 96 4.8 11.3 0.00 0.00 0.00 52 1015.2
20260906163522 34 74 8.0 14.5 0.00 0.00 0.00 52 1015.2
20260906163020 35 82 6.4 16.1 0.00 0.00 0.00 51 1015.1
20260906162518 34 117 4.8 9.7 0.00 0.00 0.00 50 1015.0
20260906162016 34 140 6.4 12.9 0.00 0.00 0.00 50 1015.1
20260906161534 33 81 6.4 9.7 0.00 0.00 0.00 51 1015.2
20260906161052 33 82 8.0 16.1 0.00 0.00 0.00 52 1015.3
20260906160531 34 101 4.8 11.3 0.00 0.00 0.00 53 1015.0
20260906160028 34 140 4.8 11.3 0.00 0.00 0.00 52 1015.1
20260906155546 34 159 3.2 12.9 0.00 0.00 0.00 53 1015.0
20260906155024 33 120 3.2 9.7 0.00 0.00 0.00 55 1015.1
20260906154522 33 68 4.8 9.7 0.00 0.00 0.00 56 1015.0
20260906154020 33 107 3.2 8.0 0.00 0.00 0.00 56 1015.0
20260906153538 33 106 3.2 8.0 0.00 0.00 0.00 56 1015.0
20260906153016 33 178 3.2 9.7 0.00 0.00 0.00 56 1015.0
20260906152534 33 233 1.6 6.4 0.00 0.00 0.00 57 1014.8
20260906152032 33 133 3.2 6.4 0.00 0.00 0.00 58 1014.8
20260906151531 32 159 1.6 6.4 0.00 0.00 0.00 59 1014.9
20260906151029 32 141 3.2 8.0 0.00 0.00 0.00 58 1014.6
20260906150527 32 143 3.2 6.4 0.00 0.00 0.00 60 1014.6
20260906150025 32 99 3.2 6.4 0.00 0.00 0.00 60 1014.5
20260906145603 32 212 1.6 8.0 0.00 0.00 0.00 61 1014.5
20260906145020 32 188 3.2 6.4 0.00 0.00 0.00 61 1014.5
20260906144518 32 138 3.2 4.8 0.00 0.00 0.00 61 1014.5
20260906144036 31 101 1.6 6.4 0.00 0.00 0.00 62 1014.5
20260906143534 31 113 1.6 8.0 0.00 0.00 0.00 63 1014.8
20260906143032 31 81 3.2 8.0 0.00 0.00 0.00 63 1014.8
20260906142549 31 92 1.6 4.8 0.00 0.00 0.00 64 1014.7
20260906142048 31 95 1.6 4.8 0.00 0.00 0.00 64 1014.8
20260906141546 30 117 3.2 4.8 0.00 0.00 0.00 65 1014.7
20260906141025 30 71 3.2 6.4 0.00 0.00 0.00 68 1014.6
20260906140522 30 75 3.2 6.4 0.00 0.00 0.00 67 1014.7
20260906140020 30 86 1.6 6.4 0.00 0.00 0.00 67 1014.6
20260906135538 30 77 1.6 4.8 0.00 0.00 0.00 68 1014.5
20260906135016 29 85 1.6 6.4 0.00 0.00 0.00 69 1014.6
20260906134535 29 79 3.2 8.0 0.00 0.00 0.00 69 1014.6
20260906134033 29 112 1.6 4.8 0.00 0.00 0.00 70 1014.7
20260906133531 28 83 3.2 8.0 0.00 0.00 0.00 71 1014.6
20260906133029 28 144 3.2 8.0 0.00 0.00 0.00 72 1014.6
20260906132607 28 122 3.2 6.4 0.00 0.00 0.00 73 1014.5
20260906132025 28 108 3.2 6.4 0.00 0.00 0.00 74 1014.5
20260906131523 27 119 3.2 8.0 0.00 0.00 0.00 75 1014.5
20260906131020 27 147 1.6 6.4 0.00 0.00 0.00 77 1014.4
20260906130558 26 158 3.2 6.4 0.00 0.00 0.00 79 1014.4
20260906130017 26 200 3.2 6.4 0.00 0.00 0.00 79 1014.4
20260906125534 26 188 1.6 6.4 0.00 0.00 0.00 80 1014.5
20260906125032 26 156 3.2 4.8 0.00 0.00 0.00 81 1014.4
20260906124530 26 120 3.2 6.4 0.00 0.00 0.00 82 1014.4
20260906124108 25 138 1.6 4.8 0.00 0.00 0.00 82 1014.3
20260906123545 25 154 1.6 4.8 0.00 0.00 0.00 82 1014.2
20260906123024 25 130 1.6 4.8 0.00 0.00 0.00 83 1014.1
20260906122522 25 178 1.6 4.8 0.00 0.00 0.00 83 1014.2
20260906122019 25 110 1.6 4.8 0.00 0.00 0.00 84 1014.0
20260906121517 25 124 0.0 3.2 0.00 0.00 0.00 84 1014.1
20260906121015 25 141 1.6 4.8 0.00 0.00 0.00 83 1014.2
20260906120553 25 154 1.6 6.4 0.00 0.00 0.00 83 1014.0
20260906120032 25 12 1.6 4.8 0.00 0.00 0.00 83 1013.9
20260906115531 25 17 3.2 4.8 0.00 0.00 0.00 83 1013.8
20260906115028 25 71 1.6 4.8 0.00 0.00 0.00 83 1013.8
20260906114526 25 71 1.6 3.2 0.00 0.00 0.00 82 1013.8
20260906114044 25 107 1.6 3.2 0.00 0.00 0.00 82 1013.8
20260906113522 25 113 1.6 4.8 0.00 0.00 0.00 82 1013.7
20260906113020 25 101 1.6 3.2 0.00 0.00 0.00 82 1013.7
20260906112518 25 118 1.6 4.8 0.00 0.00 0.00 82 1013.6
20260906112016 25 82 1.6 4.8 0.00 0.00 0.00 81 1013.6
20260906111554 26 0.0 3.2 0.00 0.00 0.00 81 1013.6
20260906111032 26 144 1.6 3.2 0.00 0.00 0.00 80 1013.6
20260906110530 26 101 1.6 6.4 0.00 0.00 0.00 80 1013.5
20260906110028 26 30 3.2 6.4 0.00 0.00 0.00 80 1013.5
20260906105526 26 83 1.6 4.8 0.00 0.00 0.00 80 1013.3
20260906105024 26 175 0.0 4.8 0.00 0.00 0.00 79 1013.2
20260906104542 26 195 1.6 4.8 0.00 0.00 0.00 80 1013.3
20260906104020 26 159 1.6 4.8 0.00 0.00 0.00 80 1013.2
20260906103518 26 0.0 0.0 0.00 0.00 0.00 80 1013.3
20260906103016 26 0.0 0.0 0.00 0.00 0.00 80 1013.3
20260906102534 26 0.0 0.0 0.00 0.00 0.00 80 1013.3
20260906102033 26 0.0 0.0 0.00 0.00 0.00 79 1013.2
20260906101531 26 0.0 0.0 0.00 0.00 0.00 79 1013.3
20260906101029 26 0.0 0.0 0.00 0.00 0.00 78 1013.2
20260906100608 26 0.0 1.6 0.00 0.00 0.00 78 1013.1
20260906100026 26 0.0 0.0 0.00 0.00 0.00 78 1013.1
20260906095544 26 0.0 0.0 0.00 0.00 0.00 78 1013.1
20260906095022 26 0.0 0.0 0.00 0.00 0.00 78 1012.9
20260906094521 26 0.0 0.0 0.00 0.00 0.00 78 1013.1
20260906094019 26 0.0 0.0 0.00 0.00 0.00 78 1012.9
20260906093557 26 0.0 0.0 0.00 0.00 0.00 77 1012.8
20260906093035 26 15 0.0 3.2 0.00 0.00 0.00 76 1012.8
20260906092533 27 5 0.0 1.6 0.00 0.00 0.00 76 1012.8
20260906092032 27 102 0.0 3.2 0.00 0.00 0.00 76 1012.7
20260906091550 27 137 0.0 3.2 0.00 0.00 0.00 75 1012.7
20260906091028 27 147 0.0 3.2 0.00 0.00 0.00 75 1012.7
20260906090527 27 156 0.0 3.2 0.00 0.00 0.00 75 1012.5
20260906090025 27 164 1.6 3.2 0.00 0.00 0.00 74 1012.5
20260906085543 27 157 1.6 3.2 0.00 0.00 0.00 74 1012.5
20260906085022 27 168 1.6 4.8 0.00 0.00 0.00 74 1012.5
20260906084520 27 171 1.6 3.2 0.00 0.00 0.00 73 1012.4
20260906084018 27 164 1.6 3.2 0.00 0.00 0.00 73 1012.6
20260906083536 27 170 1.6 4.8 0.00 0.00 0.00 73 1012.7
20260906083055 27 172 1.6 4.8 0.00 0.00 0.00 73 1012.6
20260906082533 27 153 1.6 4.8 0.00 0.00 0.00 72 1012.7
20260906082031 27 199 1.6 4.8 0.00 0.00 0.00 72 1012.5
20260906081530 28 248 0.0 4.8 0.00 0.00 0.00 72 1012.5
20260906081048 28 224 1.6 6.4 0.00 0.00 0.00 71 1012.4
20260906080527 28 205 1.6 4.8 0.00 0.00 0.00 71 1012.6
20260906080025 28 224 1.6 4.8 0.00 0.00 0.00 71 1012.6
20260906075524 28 204 1.6 6.4 0.00 0.00 0.00 71 1012.7
20260906075022 28 215 1.6 4.8 0.00 0.00 0.00 71 1012.9
20260906074540 28 193 3.2 6.4 0.00 0.00 0.00 71 1013.1
20260906074118 28 192 1.6 4.8 0.00 0.00 0.00 71 1013.0
20260906073517 28 187 1.6 6.4 0.00 0.00 0.00 71 1012.9
20260906073055 28 208 1.6 4.8 0.00 0.00 0.00 70 1013.0
20260906072533 28 189 1.6 4.8 0.00 0.00 0.00 70 1013.1
20260906072051 28 149 1.6 4.8 0.00 0.00 0.00 70 1013.0
20260906071529 28 146 1.6 4.8 0.00 0.00 0.00 70 1012.9
20260906071027 28 182 3.2 6.4 0.00 0.00 0.00 70 1012.7
20260906070525 28 170 1.6 4.8 0.00 0.00 0.00 69 1012.7
20260906070023 28 203 1.6 4.8 0.00 0.00 0.00 69 1012.8
20260906065521 28 190 1.6 4.8 0.00 0.00 0.00 69 1012.8
20260906065059 28 184 1.6 4.8 0.00 0.00 0.00 69 1013.0
20260906064517 29 198 1.6 6.4 0.00 0.00 0.00 68 1013.1
20260906064035 28 227 1.6 4.8 0.00 0.00 0.00 69 1013.1
20260906063533 29 221 1.6 3.2 0.00 0.00 0.00 68 1013.2
20260906063032 29 212 1.6 4.8 0.00 0.00 0.00 68 1013.2
20260906062531 29 228 1.6 6.4 0.00 0.00 0.00 67 1013.1
20260906062029 29 217 1.6 4.8 0.00 0.00 0.00 67 1013.0
20260906061528 29 214 1.6 4.8 0.00 0.00 0.00 67 1013.0
20260906061026 29 232 3.2 8.0 0.00 0.00 0.00 68 1013.0
20260906060524 29 224 1.6 6.4 0.00 0.00 0.00 68 1013.1
20260906060022 29 206 1.6 6.4 0.00 0.00 0.00 68 1013.1
20260906055520 29 200 1.6 8.0 0.00 0.00 0.00 67 1013.1
20260906055018 29 237 0.0 3.2 0.00 0.00 0.00 67 1013.0
20260906054517 30 209 1.6 4.8 0.00 0.00 0.00 67 1013.0
20260906054055 30 190 1.6 4.8 0.00 0.00 0.00 67 1012.9
20260906053533 30 208 1.6 4.8 0.00 0.00 0.00 66 1012.9
20260906053031 30 187 1.6 4.8 0.00 0.00 0.00 67 1013.0
20260906052529 30 185 1.6 4.8 0.00 0.00 0.00 66 1013.1
20260906052027 30 183 1.6 6.4 0.00 0.00 0.00 66 1013.2
20260906051525 30 174 3.2 6.4 0.00 0.00 0.00 65 1013.1
20260906051023 30 186 3.2 8.0 0.00 0.00 0.00 65 1013.1
20260906050522 30 187 3.2 4.8 0.00 0.00 0.00 65 1013.1
20260906050040 30 189 3.2 6.4 0.00 0.00 0.00 65 1013.0
20260906045517 30 187 3.2 6.4 0.00 0.00 0.00 64 1013.1
20260906045016 30 189 3.2 6.4 0.00 0.00 0.00 64 1013.1
20260906044554 30 202 3.2 4.8 0.00 0.00 0.00 64 1013.0
20260906044032 30 182 1.6 4.8 0.00 0.00 0.00 63 1013.0
20260906043531 30 185 3.2 6.4 0.00 0.00 0.00 63 1013.1
20260906043049 30 200 3.2 6.4 0.00 0.00 0.00 63 1012.9
20260906042526 30 184 3.2 6.4 0.00 0.00 0.00 63 1012.7
20260906042044 30 193 3.2 9.7 0.00 0.00 0.00 62 1012.7
20260906041523 30 178 3.2 9.7 0.00 0.00 0.00 62 1012.9
20260906041021 31 177 3.2 9.7 0.00 0.00 0.00 61 1012.9
20260906040519 31 201 3.2 6.4 0.00 0.00 0.00 61 1012.8
20260906040017 31 201 3.2 9.7 0.00 0.00 0.00 61 1012.7
20260906035515 31 206 3.2 9.7 0.00 0.00 0.00 61 1012.9
20260906035033 31 187 3.2 9.7 0.00 0.00 0.00 60 1012.9
20260906034532 31 184 3.2 8.0 0.00 0.00 0.00 60 1012.9
20260906034029 31 192 1.6 9.7 0.00 0.00 0.00 60 1013.0
20260906033528 31 186 3.2 9.7 0.00 0.00 0.00 59 1012.9
20260906033026 31 179 3.2 6.4 0.00 0.00 0.00 59 1013.0
20260906032523 31 187 3.2 8.0 0.00 0.00 0.00 59 1013.0
20260906032021 31 185 1.6 6.4 0.00 0.00 0.00 59 1012.9
20260906031519 31 157 4.8 16.1 0.00 0.00 0.00 58 1012.9
20260906031037 31 163 4.8 9.7 0.00 0.00 0.00 58 1013.0
20260906030535 31 172 3.2 12.9 0.00 0.00 0.00 57 1012.9
20260906030053 31 155 6.4 11.3 0.00 0.00 0.00 57 1013.0
20260906025531 31 174 4.8 11.3 0.00 0.00 0.00 57 1012.9
20260906025029 31 166 4.8 12.9 0.00 0.00 0.00 57 1012.9
20260906024547 31 179 3.2 9.7 0.00 0.00 0.00 57 1012.8
20260906024025 31 149 3.2 8.0 0.00 0.00 0.00 56 1012.9
20260906023523 32 160 4.8 11.3 0.00 0.00 0.00 56 1012.8
20260906023022 32 167 4.8 11.3 0.00 0.00 0.00 55 1012.6
20260906022520 32 159 4.8 9.7 0.00 0.00 0.00 55 1012.6
20260906022019 32 182 3.2 9.7 0.00 0.00 0.00 54 1012.3
20260906021536 32 145 6.4 14.5 0.00 0.00 0.00 54 1012.3
20260906021034 32 145 4.8 12.9 0.00 0.00 0.00 53 1012.3
20260906020553 32 150 4.8 16.1 0.00 0.00 0.00 53 1012.3
20260906020031 33 144 6.4 11.3 0.00 0.00 0.00 52 1012.2
20260906015529 33 166 4.8 11.3 0.00 0.00 0.00 52 1011.9
20260906015028 33 177 4.8 12.9 0.00 0.00 0.00 51 1011.9
20260906014526 33 153 6.4 19.3 0.00 0.00 0.00 49 1011.8
20260906014024 33 137 6.4 16.1 0.00 0.00 0.00 48 1011.7
20260906013542 34 110 9.7 20.9 0.00 0.00 0.00 46 1011.5
20260906013020 34 130 4.8 16.1 0.00 0.00 0.00 43 1011.3
20260906012518 35 113 1.6 6.4 0.00 0.00 0.00 43 1011.2
20260906012016 35 101 3.2 6.4 0.00 0.00 0.00 43 1011.3
20260906011535 35 108 4.8 8.0 0.00 0.00 0.00 43 1011.2
20260906011113 35 107 4.8 8.0 0.00 0.00 0.00 42 1011.2
20260906010531 35 116 3.2 8.0 0.00 0.00 0.00 42 1011.2
20260906010029 35 119 4.8 9.7 0.00 0.00 0.00 41 1011.2
20260906005527 35 120 1.6 8.0 0.00 0.00 0.00 41 1011.1
20260906005025 35 110 4.8 8.0 0.00 0.00 0.00 41 1011.2
20260906004523 35 113 4.8 9.7 0.00 0.00 0.00 40 1011.2
20260906004022 35 103 4.8 8.0 0.00 0.00 0.00 40 1011.2
20260906003519 36 97 3.2 6.4 0.00 0.00 0.00 40 1011.1
20260906003017 36 108 3.2 8.0 0.00 0.00 0.00 39 1011.2
20260906002516 36 109 4.8 9.7 0.00 0.00 0.00 39 1011.1
20260906002054 36 93 4.8 12.9 0.00 0.00 0.00 39 1011.2
20260906001532 36 116 3.2 9.7 0.00 0.00 0.00 39 1011.2
20260906001050 36 123 3.2 8.0 0.00 0.00 0.00 39 1011.2
20260906000528 36 113 3.2 8.0 0.00 0.00 0.00 39 1011.0
20260906000026 36 85 6.4 12.9 0.00 0.00 0.00 39 1011.0
20260905235524 36 100 4.8 8.0 0.00 0.00 0.00 38 1011.0
20260905235022 36 127 3.2 9.7 0.00 0.00 0.00 39 1010.9
20260905234521 36 121 4.8 9.7 0.00 0.00 0.00 39 1011.0
20260905234019 36 98 4.8 11.3 0.00 0.00 0.00 39 1011.0
20260905233517 36 74 6.4 11.3 0.00 0.00 0.00 40 1011.0
20260905233055 36 81 6.4 14.5 0.00 0.00 0.00 40 1011.0
20260905232533 37 88 8.0 12.9 0.00 0.00 0.00 39 1011.0
20260905232032 37 97 3.2 9.7 0.00 0.00 0.00 38 1011.1
20260905231530 37 115 4.8 11.3 0.00 0.00 0.00 38 1011.0
20260905231028 37 104 3.2 6.4 0.00 0.00 0.00 37 1011.0
20260905230526 37 152 3.2 8.0 0.00 0.00 0.00 37 1010.9